Regional Weather Roundup
Issued by NWS

Home | Current Version | Previous Version | Graphics & Text | Print | Product List | Glossary Off
Versions: 1 2 3 4 5 6 7 8 9 10 11 12 13 14 15 16 17 18 19 20 21 22 23 24 25 26 27 28 29 30 31 32 33 34 35 36 37 38 39 40 41 42 43 44 45 46 47 48 49 50

000
ASUS43 KLSX 290207
RWRMO

WEATHER SUMMARY FOR MISSOURI
NATIONAL WEATHER SERVICE SPRINGFIELD MO
900 PM CDT TUE JUL 28 2015

NOTE: "FAIR" INDICATES FEW OR NO CLOUDS BELOW 12,000 FEET WITH NO
       SIGNIFICANT WEATHER AND/OR OBSTRUCTIONS TO VISIBILITY.
       CURRENT SKY AND/OR WEATHER CONDITIONS ARE NOT AVAILABLE FOR
       CHILLICOTHE AND FARMINGTON.

MOZ001>031-035>038-043-044-053-054-290300-
...NORTHERN AND WESTERN MISSOURI...

CITY           SKY/WX    TMP DP  RH WIND       PRES   REMARKS
KANSAS CTY INT PTCLDY    83  72  69 S9        29.87S
KANSAS C DTWN  CLEAR     89  72  56 S9        29.85S HX  96
LEE`S SUMMIT   CLEAR     87  70  56 S9        29.89S HX  92
ST JOSEPH      CLEAR     85  76  74 S9        29.84R HX  94
CHILLICOTHE      N/A     86  75  69 CALM      29.90R HX  95
KIRKSVILLE     CLEAR     83  76  79 E6        29.93R HX  91

$$
MOZ066>068-077>081-088>096-101>105-290300-
...SOUTHWEST MISSOURI...

CITY           SKY/WX    TMP DP  RH WIND       PRES   REMARKS
SPRINGFIELD    CLEAR     84  73  69 S3        29.95R HX  90
JOPLIN         CLEAR     83  74  74 S6        29.93R

$$
MOZ032>034-039>042-045>050-055>058-069>072-290300-
...CENTRAL MISSOURI...

CITY           SKY/WX    TMP DP  RH WIND       PRES   REMARKS
COLUMBIA       CLEAR     85  77  77 SE3       29.95R HX  95
JEFFERSON CITY CLEAR     87  77  72 E3        29.92R HX  99
ROLLA          CLEAR     81  75  82 S8        29.95R
SEDALIA        CLEAR     84  75  74 SE5       29.93R HX  92
WHITEMAN AFB   CLEAR     83  74  73 S6        29.90R HX  90
WARRENSBURG    CLEAR     82  73  74 SE5       29.90R
OSAGE BEACH    CLEAR     84  75  74 CALM      29.94S HX  92

$$
MOZ051-052-059>065-290300-
...EAST CENTRAL MISSOURI...

CITY           SKY/WX    TMP DP  RH WIND       PRES   REMARKS
ST LOUIS INTL  MOCLDY    92  75  57 S6        29.94R HX 103
SPIRIT OF STL  MOCLDY    86  83  90 CALM      29.92R HX 106
ST CHARLES     MOCLDY    85  79  82 NE5       29.92R HX  98

$$
MOZ072>076-082>087-097>100-106>115-290300-
...SOUTH CENTRAL AND SOUTHEAST MISSOURI...

CITY           SKY/WX    TMP DP  RH WIND       PRES   REMARKS
CAPE GIRARDEAU MOCLDY    85  78  80 SE6       29.95R HX  96
FARMINGTON     PTCLDY    82  79  89 SW3       30.01R HX  93
POPLAR BLUFF   CLEAR     84  81  90 SE3       29.94R HX  99
WEST PLAINS    CLEAR     84  76  76 S3        29.99R HX  93

$$


USA.gov is the U.S. government's official web portal to all federal, state and local government web resources and services.